Wind_Speed
19 18 17 15 14 12 11 8 6 3 2 1 1 2 3 4 4 4 5 5 6 6 7 7 8 7 7 7 6 7 7 7 8 9 10 11 10 10 9 9 8 8 8 7
21 20 19 18 16 14 13 11 9 7 5 3 2 1 0 2 3 4 4 4 5 5 6 6 7 7 7 6 6 6 6 7 8 8 9 10 9 9 9 9 9 9 9 8
23 22 21 20 18 16 15 13 11 10 8 6 5 4 3 1 3 3 3 4 4 4 5 5 5 6 6 6 6 7 7 7 7 8 8 9 9 9 10 9 9 9 10 9
25 25 24 22 20 19 17 15 14 12 11 9 8 6 5 4 3 2 2 3 3 4 4 4 4 5 5 6 6 7 7 7 7 7 8 8 9 9 10 10 10 10 10 10
26 26 25 24 22 20 18 17 16 16 14 11 9 8 6 5 4 2 2 2 3 4 4 4 4 4 5 6 6 7 7 7 7 7 7 8 9 9 10 11 11 12 11 12
27 26 26 25 24 22 21 19 18 18 17 15 12 11 8 7 5 4 4 4 4 4 4 4 4 4 5 6 6 7 7 7 7 7 8 8 9 10 10 12 12 13 13 12
29 28 27 26 26 24 23 22 21 20 19 16 14 14 10 8 7 6 6 6 6 5 5 4 4 4 4 5 6 7 7 7 7 7 8 9 9 10 11 12 12 13 13 13
29 28 27 26 25 24 23 23 23 22 20 17 17 16 12 10 9 9 8 6 6 6 6 5 5 5 5 6 6 6 7 7 8 8 8 9 9 10 11 12 13 13 14 13
29 28 27 26 25 25 24 24 24 24 22 20 19 17 14 13 11 9 8 7 7 7 7 6 5 5 6 6 6 6 7 8 8 8 9 9 10 11 11 12 13 14 14 14
30 29 28 27 27 26 24 24 24 24 23 22 20 18 16 14 12 10 10 9 8 8 7 6 6 6 6 7 7 7 8 9 9 9 10 10 11 11 12 13 14 15 15 14
31 30 29 28 28 25 25 25 24 23 22 22 21 19 16 15 14 13 11 10 9 8 8 8 7 7 7 7 8 8 9 10 10 10 11 11 12 12 13 14 15 15 16 15
31 31 30 29 28 27 26 25 25 24 23 22 21 19 17 16 15 14 13 11 10 9 10 10 9 8 8 8 9 9 10 11 11 12 12 13 12 13 14 15 16 15 16 16
32 32 31 30 30 28 28 26 25 24 23 23 22 20 18 17 16 15 14 12 11 11 11 10 10 10 9 9 10 11 11 12 12 12 13 13 13 14 15 16 16 16 16 16
32 32 31 30 28 28 28 27 25 24 24 23 22 21 19 18 17 16 15 14 13 14 13 11 11 11 11 11 11 12 13 13 13 13 13 14 14 15 16 16 16 16 16 17
32 32 30 29 29 29 28 27 26 25 24 23 22 21 20 18 17 16 16 16 16 15 14 14 13 13 13 12 12 13 14 13 14 14 15 15 15 16 16 16 16 16 16 17
32 32 31 31 30 30 29 28 27 26 24 24 23 22 20 19 19 18 17 17 17 17 15 15 15 14 14 14 14 14 15 16 15 15 16 16 16 16 16 15 16 16 16 17
32 32 31 30 30 31 31 29 28 27 26 25 23 22 21 20 19 19 19 19 19 18 17 17 16 16 16 16 17 17 18 19 18 18 17 17 16 16 16 16 16 17 17 17
32 32 31 30 30 32 30 29 28 28 27 25 24 23 22 21 21 21 20 19 19 19 18 18 17 17 17 18 18 19 20 20 19 18 18 17 17 17 17 16 17 17 17 17
33 33 32 32 32 32 31 30 28 28 27 26 25 24 23 22 22 21 21 21 21 20 19 18 18 18 18 19 20 21 21 20 19 18 18 18 17 17 17 18 18 19 19 18
34 34 34 33 32 32 31 30 29 28 28 26 25 24 24 23 23 22 22 22 21 20 19 19 18 18 19 20 20 21 21 21 20 19 19 19 18 18 19 19 19 19 19 19
33 34 34 34 33 32 30 30 29 29 27 26 26 25 24 24 24 23 23 22 21 20 20 20 20 20 20 20 21 21 21 21 21 20 19 19 19 20 20 20 20 21 21 21
33 33 34 35 34 32 30 29 29 28 27 27 27 26 25 25 24 23 22 22 21 21 20 20 21 21 21 20 21 21 21 21 20 20 19 19 19 19 20 21 21 22 22 22
34 34 34 35 34 31 30 29 30 29 29 28 27 26 25 25 24 23 23 22 21 22 21 21 21 21 21 22 22 23 23 22 21 21 21 20 19 20 20 21 21 21 22 22
33 33 34 35 34 33 31 29 29 29 29 28 28 28 27 27 26 25 24 23 22 21 21 21 21 22 22 23 24 24 23 23 22 21 21 20 20 20 21 21 22 22 22 22
33 33 34 34 34 34 32 30 30 29 29 29 29 30 29 28 27 26 25 24 23 23 22 22 23 23 23 24 23 23 22 22 22 21 20 21 21 22 21 22 23 23 22 22
33 33 34 34 33 33 32 31 31 30 30 30 30 30 30 29 28 27 26 25 24 24 23 23 24 24 24 24 24 23 23 23 22 21 21 21 21 22 23 24 24 24 23 23
Wind_Direction
218 218 217 219 221 224 229 229 219 198 188 162 106 74 47 38 23 25 36 41 48 50 47 43 39 34 32 30 30 27 27 23 20 22 22 24 26 26 26 23 18 10 2 358
220 217 218 220 223 225 228 229 226 219 222 219 205 187 63 27 357 352 16 36 32 41 45 41 36 31 27 24 20 17 21 19 20 20 19 20 21 18 16 17 15 9 2 359
223 220 220 222 224 226 229 231 230 227 227 228 235 236 240 265 308 333 360 9 15 25 33 30 26 24 20 15 10 10 15 15 17 17 17 17 16 11 8 7 5 2 359 354
223 222 222 223 224 225 227 230 232 232 231 234 242 242 237 241 263 308 335 350 360 8 9 16 16 15 11 6 3 4 11 10 10 10 11 10 10 6 3 3 0 357 355 348
223 223 223 224 225 226 227 232 236 237 237 235 236 243 241 245 256 279 309 324 333 349 344 350 2 5 6 5 3 7 9 7 7 4 2 3 3 1 358 356 352 348 346 345
223 224 224 224 225 227 228 230 235 238 239 241 242 246 242 251 264 272 285 290 305 320 337 335 343 348 358 4 4 0 0 0 359 358 358 355 354 354 353 351 349 345 342 340
222 223 224 225 226 228 229 230 234 237 238 241 242 247 250 253 263 270 272 277 288 300 312 319 333 345 349 354 356 359 358 355 353 352 351 349 347 346 345 345 345 343 340 337
224 223 224 225 226 229 231 233 237 239 240 244 245 248 252 255 260 263 262 262 276 286 305 305 318 330 339 340 344 347 348 346 343 342 343 343 340 339 338 338 338 337 336 332
225 225 224 225 225 228 229 232 236 236 238 242 247 247 247 251 254 259 261 262 270 281 298 299 301 312 318 325 331 334 333 330 326 327 333 333 332 331 333 333 333 333 332 331
224 225 224 225 227 229 229 231 234 235 238 241 245 246 248 253 253 258 259 262 269 273 280 294 294 297 302 303 310 316 314 315 315 315 320 325 329 329 326 325 327 329 330 327
224 225 224 225 226 227 228 229 233 236 240 243 244 247 250 252 254 256 258 260 262 266 275 284 288 286 293 294 295 303 308 311 312 309 311 318 323 325 325 325 325 326 327 326
224 225 223 224 225 225 226 229 232 236 240 241 245 247 248 250 255 259 261 262 262 263 273 280 278 280 289 292 293 298 303 308 308 308 308 312 317 320 323 323 324 325 326 324
223 224 222 220 222 224 225 228 232 236 239 242 244 246 246 249 253 257 259 260 260 264 271 277 276 280 283 289 294 298 303 306 305 306 307 312 314 316 319 319 321 322 323 323
222 224 224 224 225 227 227 229 232 236 240 243 242 245 246 248 253 255 255 260 259 264 267 267 271 276 281 288 291 297 302 303 302 304 305 306 311 313 313 314 317 319 318 319
221 222 223 222 222 225 229 230 232 236 241 244 243 244 245 249 253 253 255 259 258 262 265 264 267 274 280 286 289 295 299 302 302 301 302 305 308 309 308 311 314 316 315 315
222 223 223 223 223 224 228 231 233 235 239 242 243 244 245 249 251 252 256 259 262 264 267 267 269 274 280 286 289 292 295 298 300 301 302 302 304 309 309 310 314 315 313 313
223 224 224 224 223 225 227 230 233 237 239 241 242 244 246 249 252 255 257 260 263 266 268 273 271 273 277 283 287 290 293 295 296 297 299 300 302 305 307 308 310 312 312 311
225 225 226 226 226 228 229 232 235 238 241 241 241 243 247 250 254 256 257 258 261 265 269 272 275 275 278 283 288 292 293 293 292 294 295 296 297 299 301 303 306 308 309 309
225 226 228 229 230 232 232 233 236 239 241 242 242 245 248 249 252 255 256 258 261 264 268 269 273 274 279 283 288 290 293 293 292 291 291 293 293 295 296 299 301 302 304 305
225 227 229 230 232 234 235 235 237 240 240 241 245 247 250 253 255 258 260 260 261 263 266 269 273 276 281 284 287 289 291 290 289 288 289 289 289 291 293 296 299 300 301 303
227 228 231 233 235 236 238 238 239 240 240 240 243 247 250 253 255 256 258 258 258 263 266 268 272 277 282 285 288 290 290 289 286 285 287 287 288 290 292 294 297 298 299 301
231 230 232 234 237 238 238 240 240 243 243 243 243 247 249 251 254 257 257 258 258 263 267 269 273 276 281 285 288 291 291 289 284 283 285 286 287 289 291 294 296 297 297 299
233 234 235 235 237 238 238 240 241 244 245 244 244 246 248 250 253 256 257 258 260 264 268 271 274 277 281 284 287 290 290 288 283 283 285 286 286 287 290 293 295 297 298 299
234 235 236 237 236 237 238 240 242 243 244 244 245 247 250 250 251 253 256 260 261 262 267 270 274 278 282 284 287 287 286 286 284 285 284 284 285 287 290 293 294 295 296 297
235 236 237 238 239 239 238 239 241 242 243 244 245 246 248 249 252 253 255 257 260 262 264 268 273 276 279 281 283 283 282 283 283 283 284 284 285 287 288 292 295 294 295 296
235 236 237 238 239 240 239 238 239 240 241 243 245 245 246 249 251 252 253 255 257 259 262 266 269 273 277 279 281 282 282 283 283 282 284 285 286 288 289 293 295 295 294 295
Height
5899 5903 5904 5906 5908 5910 5911 5912 5913 5914 5914 5915 5915 5916 5916 5915 5915 5915 5914 5914 5913 5912 5911 5911 5910 5909 5909 5908 5907 5907 5905 5904 5903 5902 5900 5899 5898 5896 5895 5894 5893 5892 5890 5889
5898 5900 5902 5904 5906 5908 5909 5911 5913 5914 5914 5915 5915 5916 5916 5916 5916 5916 5915 5914 5914 5913 5912 5911 5911 5910 5909 5909 5908 5907 5906 5905 5904 5903 5901 5900 5899 5898 5896 5895 5894 5892 5891 5890
5894 5898 5899 5902 5904 5906 5908 5910 5911 5913 5913 5914 5915 5915 5916 5916 5916 5916 5916 5915 5914 5913 5913 5912 5911 5910 5910 5909 5909 5908 5907 5906 5905 5904 5903 5901 5900 5898 5897 5896 5894 5893 5891 5889
5890 5893 5896 5899 5901 5904 5906 5908 5910 5911 5912 5912 5914 5915 5915 5915 5916 5916 5916 5915 5914 5914 5913 5912 5912 5911 5910 5910 5909 5908 5907 5906 5905 5904 5903 5902 5901 5899 5898 5896 5895 5893 5891 5890
5886 5889 5892 5896 5899 5901 5904 5906 5907 5908 5909 5911 5912 5913 5915 5914 5915 5915 5915 5915 5914 5914 5913 5912 5912 5911 5911 5910 5909 5908 5908 5907 5906 5904 5903 5902 5901 5900 5898 5897 5895 5893 5892 5889
5882 5885 5889 5892 5895 5898 5900 5903 5904 5905 5906 5908 5910 5911 5913 5913 5914 5914 5914 5914 5914 5913 5913 5912 5911 5911 5911 5910 5909 5908 5908 5907 5906 5904 5903 5902 5901 5900 5898 5897 5895 5893 5891 5889
5877 5881 5884 5888 5891 5894 5897 5900 5901 5902 5903 5906 5908 5908 5911 5912 5912 5913 5913 5913 5913 5913 5912 5911 5911 5911 5910 5909 5909 5908 5907 5906 5905 5904 5903 5902 5901 5899 5898 5896 5894 5892 5890 5888
5872 5876 5880 5884 5888 5890 5893 5896 5898 5900 5901 5904 5905 5906 5909 5910 5910 5910 5911 5911 5911 5912 5911 5911 5910 5909 5909 5909 5908 5907 5907 5906 5905 5904 5903 5902 5900 5899 5897 5895 5893 5891 5889 5887
5868 5873 5877 5880 5883 5886 5889 5891 5894 5896 5898 5900 5902 5904 5906 5907 5908 5908 5909 5910 5910 5910 5910 5909 5909 5909 5908 5908 5907 5906 5906 5905 5904 5903 5902 5901 5899 5898 5896 5894 5892 5890 5887 5885
5863 5867 5872 5875 5879 5881 5885 5887 5890 5892 5894 5896 5898 5901 5903 5904 5906 5907 5907 5908 5908 5909 5909 5908 5908 5908 5907 5907 5906 5905 5904 5903 5903 5902 5901 5899 5898 5896 5894 5893 5891 5888 5886 5884
5857 5862 5867 5870 5874 5877 5881 5883 5885 5888 5891 5893 5895 5900 5901 5902 5903 5904 5905 5906 5906 5907 5907 5907 5906 5906 5906 5905 5904 5904 5903 5902 5901 5900 5899 5898 5896 5895 5893 5891 5889 5887 5884 5882
5852 5857 5861 5866 5869 5873 5876 5879 5882 5885 5887 5889 5892 5897 5897 5899 5900 5901 5902 5903 5904 5904 5904 5904 5904 5904 5904 5903 5903 5902 5901 5900 5899 5898 5897 5895 5894 5892 5891 5889 5887 5885 5882 5880
5847 5851 5856 5860 5865 5868 5871 5874 5877 5881 5883 5885 5888 5894 5893 5895 5896 5898 5899 5900 5901 5902 5902 5902 5902 5902 5901 5901 5901 5900 5899 5898 5897 5895 5894 5893 5892 5890 5889 5887 5884 5882 5880 5877
5842 5846 5851 5856 5860 5864 5867 5870 5873 5876 5878 5881 5884 5888 5890 5892 5893 5895 5896 5897 5898 5898 5899 5899 5899 5899 5899 5898 5898 5897 5897 5895 5894 5893 5892 5891 5889 5887 5886 5884 5882 5879 5877 5875
5836 5841 5846 5851 5855 5859 5862 5866 5869 5872 5875 5878 5881 5883 5886 5888 5890 5891 5892 5894 5894 5895 5895 5896 5896 5896 5896 5895 5895 5894 5893 5892 5891 5890 5889 5888 5886 5884 5882 5880 5879 5877 5874 5872
5830 5835 5840 5845 5849 5853 5857 5861 5864 5867 5870 5873 5876 5879 5882 5884 5885 5887 5888 5889 5890 5890 5891 5892 5892 5892 5892 5891 5891 5890 5889 5888 5887 5886 5885 5884 5882 5880 5878 5877 5875 5873 5871 5868
5826 5831 5835 5840 5844 5847 5852 5856 5859 5862 5865 5868 5871 5875 5877 5879 5881 5883 5884 5885 5886 5886 5887 5887 5888 5888 5888 5887 5887 5886 5885 5884 5883 5882 5881 5879 5878 5876 5875 5873 5871 5869 5867 5865
5821 5825 5830 5834 5839 5842 5849 5851 5854 5857 5860 5863 5867 5869 5872 5874 5876 5878 5880 5881 5882 5882 5883 5883 5883 5883 5883 5883 5882 5881 5880 5879 5878 5877 5876 5875 5874 5872 5871 5869 5868 5866 5864 5862
5815 5820 5824 5828 5832 5836 5841 5845 5848 5852 5855 5858 5861 5864 5867 5869 5871 5873 5874 5876 5877 5877 5878 5878 5879 5879 5879 5878 5877 5876 5875 5874 5873 5873 5872 5871 5869 5868 5867 5865 5863 5862 5860 5858
5809 5814 5819 5822 5826 5830 5836 5840 5843 5847 5849 5853 5855 5858 5861 5863 5866 5868 5869 5870 5871 5872 5873 5873 5873 5873 5873 5873 5872 5870 5869 5869 5868 5868 5867 5866 5865 5863 5862 5860 5859 5857 5855 5853
5804 5808 5812 5816 5820 5824 5829 5833 5837 5841 5845 5847 5850 5852 5855 5857 5860 5862 5863 5864 5865 5866 5867 5868 5868 5868 5867 5867 5866 5865 5864 5863 5862 5862 5861 5861 5859 5858 5857 5855 5853 5851 5849 5848
5798 5802 5806 5810 5814 5820 5823 5827 5831 5834 5838 5840 5843 5846 5848 5851 5853 5855 5856 5857 5858 5860 5861 5861 5862 5862 5861 5861 5860 5858 5858 5857 5856 5856 5856 5855 5854 5853 5851 5850 5848 5846 5844 5842
5791 5796 5800 5805 5810 5813 5817 5820 5824 5827 5830 5833 5837 5839 5842 5844 5846 5848 5850 5851 5852 5854 5855 5855 5855 5856 5855 5854 5854 5853 5852 5851 5850 5850 5850 5849 5848 5847 5846 5844 5841 5839 5838 5836
5785 5789 5793 5798 5802 5806 5810 5814 5817 5820 5824 5827 5829 5832 5835 5837 5839 5841 5843 5845 5846 5847 5848 5848 5849 5849 5849 5848 5847 5846 5845 5844 5844 5843 5843 5843 5842 5841 5839 5838 5836 5834 5832 5830
5778 5783 5786 5790 5795 5799 5803 5807 5810 5813 5816 5819 5822 5825 5827 5829 5832 5834 5836 5838 5839 5840 5841 5842 5842 5843 5842 5841 5841 5840 5839 5838 5837 5837 5837 5837 5836 5835 5833 5832 5830 5828 5826 5824
5772 5776 5780 5784 5788 5792 5796 5799 5803 5806 5809 5812 5815 5817 5819 5822 5824 5827 5829 5830 5832 5833 5834 5835 5835 5835 5835 5835 5834 5833 5833 5832 5831 5831 5831 5830 5829 5828 5827 5826 5824 5821 5819 5818